ZKWTK NZKD-NZAR

Flight info

Callsign ZKWTK
Flight time 0h 53m
Altitude 2500
Route OREWA AUCKLAND CBD
Aircraft C172/L-V/N

Departure

Time 2026-04-16 01:58
Airport Motu Kaikoura Island Aerodrome (NZKD)

Arrival

Time 2026-04-16 02:51
Airport Ardmore Airport (NZAR)
Time Latitude Longitude Altitude Speed Heading
2026-04-16 01:51 -36.17777 175.32478 399 ft 0 kts 251°
2026-04-16 01:53 -36.17777 175.32477 399 ft 0 kts 255°
2026-04-16 01:53 -36.17778 175.32475 399 ft 0 kts 255°
2026-04-16 01:53 -36.17778 175.32472 399 ft 0 kts 242°
2026-04-16 01:54 -36.17787 175.32463 399 ft 1 kts 173°
2026-04-16 01:54 -36.17793 175.32469 399 ft 0 kts 118°
2026-04-16 01:54 -36.17786 175.32524 399 ft 9 kts 61°
2026-04-16 01:54 -36.17757 175.32585 399 ft 8 kts 58°
2026-04-16 01:55 -36.17724 175.32652 399 ft 9 kts 59°
2026-04-16 01:55 -36.17693 175.32713 399 ft 6 kts 60°
2026-04-16 01:55 -36.17671 175.32759 399 ft 8 kts 60°
2026-04-16 01:55 -36.17634 175.32832 399 ft 9 kts 59°
2026-04-16 01:56 -36.17603 175.32893 399 ft 7 kts 59°
2026-04-16 01:56 -36.17575 175.32947 399 ft 6 kts 41°
2026-04-16 01:56 -36.17558 175.32973 399 ft 2 kts 180°
2026-04-16 01:56 -36.17567 175.32965 399 ft 0 kts 234°
2026-04-16 01:57 -36.17574 175.32953 399 ft 13 kts 234°
2026-04-16 01:57 -36.17712 175.32680 424 ft 53 kts 238°
2026-04-16 01:57 -36.17871 175.32353 665 ft 45 kts 236°
2026-04-16 01:57 -36.18079 175.32028 804 ft 52 kts 229°
2026-04-16 01:58 -36.18339 175.31670 1057 ft 57 kts 233°
2026-04-16 01:58 -36.18599 175.31282 1243 ft 60 kts 230°
2026-04-16 01:58 -36.18868 175.30885 1413 ft 62 kts 233°
2026-04-16 01:58 -36.19107 175.30458 1603 ft 62 kts 234°
2026-04-16 01:59 -36.19326 175.29979 1737 ft 66 kts 241°
2026-04-16 01:59 -36.19570 175.29488 1910 ft 66 kts 232°
2026-04-16 01:59 -36.19868 175.29004 1990 ft 76 kts 234°
2026-04-16 01:59 -36.20174 175.28451 2099 ft 78 kts 236°
2026-04-16 02:00 -36.20491 175.27901 2223 ft 78 kts 234°
2026-04-16 02:00 -36.20806 175.27328 2329 ft 81 kts 235°
2026-04-16 02:00 -36.21131 175.26779 2467 ft 78 kts 233°
2026-04-16 02:00 -36.21468 175.26204 2505 ft 85 kts 235°
2026-04-16 02:01 -36.21802 175.25588 2541 ft 88 kts 236°
2026-04-16 02:01 -36.22140 175.24934 2544 ft 90 kts 238°
2026-04-16 02:01 -36.22456 175.24260 2560 ft 91 kts 239°
2026-04-16 02:01 -36.22778 175.23576 2532 ft 94 kts 237°
2026-04-16 02:02 -36.23135 175.22914 2579 ft 90 kts 237°
2026-04-16 02:02 -36.23462 175.22255 2604 ft 89 kts 236°
2026-04-16 02:02 -36.23809 175.21606 2605 ft 92 kts 237°
2026-04-16 02:02 -36.24145 175.20924 2611 ft 92 kts 240°
2026-04-16 02:03 -36.24431 175.20232 2651 ft 90 kts 242°
2026-04-16 02:03 -36.24746 175.19556 2653 ft 91 kts 236°
2026-04-16 02:03 -36.25104 175.18898 2630 ft 93 kts 236°
2026-04-16 02:04 -36.25831 175.17557 2598 ft 91 kts 238°
2026-04-16 02:04 -36.26182 175.16895 2573 ft 92 kts 235°
2026-04-16 02:04 -36.26560 175.16266 2562 ft 90 kts 234°
2026-04-16 02:04 -36.26901 175.15624 2616 ft 85 kts 238°
2026-04-16 02:05 -36.27215 175.14992 2588 ft 89 kts 236°
2026-04-16 02:05 -36.27570 175.14352 2586 ft 89 kts 236°
2026-04-16 02:05 -36.27903 175.13713 2579 ft 89 kts 236°
2026-04-16 02:05 -36.28226 175.13042 2565 ft 90 kts 239°
2026-04-16 02:06 -36.28544 175.12364 2542 ft 91 kts 237°
2026-04-16 02:06 -36.28861 175.11706 2578 ft 87 kts 238°
2026-04-16 02:06 -36.29179 175.11049 2574 ft 89 kts 237°
2026-04-16 02:06 -36.29521 175.10417 2576 ft 88 kts 232°
2026-04-16 02:07 -36.29925 175.09850 2581 ft 87 kts 230°
2026-04-16 02:07 -36.30322 175.09274 2568 ft 88 kts 232°
2026-04-16 02:07 -36.30692 175.08658 2556 ft 88 kts 236°
2026-04-16 02:07 -36.31041 175.08038 2563 ft 87 kts 234°
2026-04-16 02:08 -36.31410 175.07443 2541 ft 89 kts 233°
2026-04-16 02:08 -36.31790 175.06844 2559 ft 86 kts 233°
2026-04-16 02:08 -36.32165 175.06249 2537 ft 88 kts 233°
2026-04-16 02:08 -36.32549 175.05649 2525 ft 89 kts 232°
2026-04-16 02:09 -36.32933 175.05063 2527 ft 87 kts 231°
2026-04-16 02:09 -36.33326 175.04475 2520 ft 88 kts 231°
2026-04-16 02:09 -36.33712 175.03882 2514 ft 89 kts 232°
2026-04-16 02:09 -36.34093 175.03275 2537 ft 87 kts 233°
2026-04-16 02:10 -36.34467 175.02670 2533 ft 89 kts 232°
2026-04-16 02:10 -36.34841 175.02057 2545 ft 88 kts 233°
2026-04-16 02:10 -36.35214 175.01448 2537 ft 89 kts 232°
2026-04-16 02:10 -36.35585 175.00848 2572 ft 86 kts 232°
2026-04-16 02:11 -36.35964 175.00253 2578 ft 89 kts 230°
2026-04-16 02:11 -36.36357 174.99672 2615 ft 87 kts 230°
2026-04-16 02:11 -36.36760 174.99112 2651 ft 87 kts 229°
2026-04-16 02:11 -36.37158 174.98538 2666 ft 88 kts 231°
2026-04-16 02:12 -36.37548 174.97922 2642 ft 91 kts 233°
2026-04-16 02:12 -36.37935 174.97302 2619 ft 91 kts 231°
2026-04-16 02:12 -36.38350 174.96713 2610 ft 89 kts 230°
2026-04-16 02:12 -36.38746 174.96121 2595 ft 89 kts 232°
2026-04-16 02:13 -36.39120 174.95508 2572 ft 90 kts 234°
2026-04-16 02:13 -36.39470 174.94855 2553 ft 90 kts 237°
2026-04-16 02:13 -36.39774 174.94163 2521 ft 92 kts 241°
2026-04-16 02:13 -36.40075 174.93463 2525 ft 90 kts 239°
2026-04-16 02:14 -36.40354 174.92790 2559 ft 87 kts 240°
2026-04-16 02:14 -36.40657 174.92110 2543 ft 90 kts 239°
2026-04-16 02:14 -36.40958 174.91460 2605 ft 85 kts 237°
2026-04-16 02:14 -36.41285 174.90830 2607 ft 88 kts 234°
2026-04-16 02:15 -36.41640 174.90218 2629 ft 87 kts 233°
2026-04-16 02:15 -36.42001 174.89607 2648 ft 86 kts 233°
2026-04-16 02:15 -36.42353 174.89004 2659 ft 87 kts 234°
2026-04-16 02:15 -36.42688 174.88380 2676 ft 86 kts 238°
2026-04-16 02:16 -36.42951 174.87709 2670 ft 87 kts 242°
2026-04-16 02:16 -36.43244 174.87048 2662 ft 89 kts 235°
2026-04-16 02:16 -36.43576 174.86385 2654 ft 88 kts 239°
2026-04-16 02:16 -36.43881 174.85728 2686 ft 88 kts 236°
2026-04-16 02:17 -36.44230 174.85097 2681 ft 89 kts 234°
2026-04-16 02:17 -36.44561 174.84450 2708 ft 87 kts 237°
2026-04-16 02:17 -36.44865 174.83810 2741 ft 86 kts 238°
2026-04-16 02:17 -36.45147 174.83148 2757 ft 86 kts 241°
2026-04-16 02:18 -36.45411 174.82469 2767 ft 88 kts 242°
2026-04-16 02:18 -36.45641 174.81747 2731 ft 91 kts 247°
2026-04-16 02:18 -36.45842 174.80994 2726 ft 90 kts 246°
2026-04-16 02:18 -36.46060 174.80278 2734 ft 89 kts 243°
2026-04-16 02:19 -36.46410 174.79634 2720 ft 89 kts 227°
2026-04-16 02:19 -36.46854 174.79135 2730 ft 84 kts 221°
2026-04-16 02:19 -36.47318 174.78659 2669 ft 87 kts 224°
2026-04-16 02:19 -36.47745 174.78124 2626 ft 87 kts 228°
2026-04-16 02:20 -36.48185 174.77618 2616 ft 86 kts 217°
2026-04-16 02:20 -36.48745 174.77296 2561 ft 89 kts 206°
2026-04-16 02:20 -36.49327 174.77035 2512 ft 90 kts 207°
2026-04-16 02:20 -36.49920 174.76744 2451 ft 91 kts 208°
2026-04-16 02:21 -36.50492 174.76425 2434 ft 88 kts 211°
2026-04-16 02:21 -36.51044 174.76077 2377 ft 90 kts 210°
2026-04-16 02:21 -36.51660 174.75833 2320 ft 92 kts 200°
2026-04-16 02:21 -36.52287 174.75720 2318 ft 90 kts 196°
2026-04-16 02:22 -36.52921 174.75600 2245 ft 93 kts 200°
2026-04-16 02:22 -36.53542 174.75401 2211 ft 91 kts 202°
2026-04-16 02:22 -36.54166 174.75235 2171 ft 93 kts 196°
2026-04-16 02:22 -36.54822 174.75166 2127 ft 94 kts 191°
2026-04-16 02:23 -36.55482 174.75125 2055 ft 96 kts 191°
2026-04-16 02:23 -36.56165 174.75090 1982 ft 97 kts 191°
2026-04-16 02:23 -36.56834 174.75052 1931 ft 96 kts 190°
2026-04-16 02:23 -36.57509 174.75070 1869 ft 98 kts 185°
2026-04-16 02:24 -36.58192 174.75185 1810 ft 99 kts 182°
2026-04-16 02:24 -36.58873 174.75285 1753 ft 97 kts 184°
2026-04-16 02:24 -36.59558 174.75362 1687 ft 98 kts 187°
2026-04-16 02:24 -36.60230 174.75374 1640 ft 95 kts 191°
2026-04-16 02:25 -36.60907 174.75362 1543 ft 98 kts 188°
2026-04-16 02:25 -36.61576 174.75385 1552 ft 94 kts 186°
2026-04-16 02:25 -36.62234 174.75476 1533 ft 95 kts 182°
2026-04-16 02:25 -36.62904 174.75580 1489 ft 97 kts 182°
2026-04-16 02:26 -36.63578 174.75636 1465 ft 94 kts 191°
2026-04-16 02:26 -36.64235 174.75617 1439 ft 95 kts 187°
2026-04-16 02:26 -36.64896 174.75619 1399 ft 95 kts 187°
2026-04-16 02:26 -36.65569 174.75647 1364 ft 96 kts 184°
2026-04-16 02:27 -36.66232 174.75726 1315 ft 96 kts 185°
2026-04-16 02:27 -36.66916 174.75726 1277 ft 94 kts 192°
2026-04-16 02:27 -36.67582 174.75707 1257 ft 96 kts 187°
2026-04-16 02:27 -36.68243 174.75754 1224 ft 97 kts 184°
2026-04-16 02:28 -36.68255 174.75754 1224 ft 96 kts 184°
2026-04-16 02:29 -36.68922 174.75804 1220 ft 95 kts 187°
2026-04-16 02:29 -36.69597 174.75845 1175 ft 98 kts 185°
2026-04-16 02:29 -36.70274 174.75893 1195 ft 95 kts 185°
2026-04-16 02:29 -36.70938 174.75960 1184 ft 95 kts 184°
2026-04-16 02:30 -36.71590 174.76064 1218 ft 94 kts 176°
2026-04-16 02:30 -36.72231 174.76402 1185 ft 103 kts 162°
2026-04-16 02:30 -36.72859 174.76831 1193 ft 101 kts 162°
2026-04-16 02:30 -36.73494 174.77185 1200 ft 98 kts 170°
2026-04-16 02:31 -36.74139 174.77443 1211 ft 96 kts 174°
2026-04-16 02:31 -36.74769 174.77718 1271 ft 93 kts 169°
2026-04-16 02:31 -36.75386 174.78018 1257 ft 96 kts 170°
2026-04-16 02:31 -36.76040 174.78235 1259 ft 94 kts 178°
2026-04-16 02:32 -36.76666 174.78410 1306 ft 92 kts 174°
2026-04-16 02:32 -36.77286 174.78694 1327 ft 94 kts 167°
2026-04-16 02:32 -36.77903 174.78995 1315 ft 96 kts 170°
2026-04-16 02:32 -36.78536 174.79153 1339 ft 89 kts 187°
2026-04-16 02:33 -36.79127 174.79033 1378 ft 83 kts 202°
2026-04-16 02:33 -36.79646 174.78717 1485 ft 80 kts 216°
2026-04-16 02:33 -36.80090 174.78337 1635 ft 77 kts 219°
2026-04-16 02:33 -36.80493 174.77904 1779 ft 77 kts 222°
2026-04-16 02:34 -36.80942 174.77502 1842 ft 83 kts 215°
2026-04-16 02:34 -36.81464 174.77129 1865 ft 88 kts 214°
2026-04-16 02:34 -36.82000 174.76785 1950 ft 86 kts 211°
2026-04-16 02:34 -36.82565 174.76411 1845 ft 94 kts 216°
2026-04-16 02:35 -36.83069 174.75884 1803 ft 92 kts 229°
2026-04-16 02:35 -36.83449 174.75249 1754 ft 92 kts 232°
2026-04-16 02:35 -36.83905 174.74696 1717 ft 91 kts 217°
2026-04-16 02:35 -36.84502 174.74382 1639 ft 96 kts 199°
2026-04-16 02:36 -36.85161 174.74266 1638 ft 94 kts 193°
2026-04-16 02:36 -36.85809 174.74200 1645 ft 94 kts 189°
2026-04-16 02:36 -36.86452 174.74316 1724 ft 93 kts 177°
2026-04-16 02:36 -36.87075 174.74597 1738 ft 96 kts 168°
2026-04-16 02:37 -36.87668 174.75030 1744 ft 101 kts 159°
2026-04-16 02:37 -36.88229 174.75603 1777 ft 105 kts 148°
2026-04-16 02:37 -36.88650 174.76396 1791 ft 118 kts 119°
2026-04-16 02:37 -36.88774 174.77422 1866 ft 122 kts 100°
2026-04-16 02:38 -36.88776 174.78520 1887 ft 126 kts 96°
2026-04-16 02:38 -36.88725 174.79593 1965 ft 126 kts 91°
2026-04-16 02:38 -36.88575 174.80708 1914 ft 136 kts 83°
2026-04-16 02:38 -36.88386 174.81868 1753 ft 140 kts 85°
2026-04-16 02:39 -36.88203 174.82988 1773 ft 123 kts 85°
2026-04-16 02:39 -36.88049 174.84013 1781 ft 117 kts 87°
2026-04-16 02:39 -36.87875 174.84966 1829 ft 113 kts 77°
2026-04-16 02:39 -36.87605 174.85913 1770 ft 116 kts 82°
2026-04-16 02:40 -36.87446 174.86874 1790 ft 111 kts 86°
2026-04-16 02:40 -36.87355 174.87846 1751 ft 112 kts 97°
2026-04-16 02:40 -36.87336 174.88806 1626 ft 112 kts 98°
2026-04-16 02:40 -36.87329 174.89786 1479 ft 112 kts 99°
2026-04-16 02:41 -36.87400 174.90742 1375 ft 113 kts 109°
2026-04-16 02:41 -36.87593 174.91695 1395 ft 113 kts 117°
2026-04-16 02:41 -36.87879 174.92607 1360 ft 114 kts 128°
2026-04-16 02:41 -36.88313 174.93408 1385 ft 106 kts 143°
2026-04-16 02:42 -36.88840 174.94012 1359 ft 103 kts 153°
2026-04-16 02:42 -36.89406 174.94536 1378 ft 99 kts 156°
2026-04-16 02:42 -36.89977 174.95024 1367 ft 98 kts 161°
2026-04-16 02:42 -36.90565 174.95427 1374 ft 93 kts 166°
2026-04-16 02:43 -36.91139 174.95787 1417 ft 89 kts 167°
2026-04-16 02:43 -36.91705 174.96146 1416 ft 94 kts 163°
2026-04-16 02:43 -36.92276 174.96536 1482 ft 91 kts 163°
2026-04-16 02:43 -36.92829 174.96953 1526 ft 94 kts 159°
2026-04-16 02:44 -36.93385 174.97420 1531 ft 96 kts 158°
2026-04-16 02:44 -36.93964 174.97786 1520 ft 91 kts 175°
2026-04-16 02:44 -36.94572 174.97908 1537 ft 86 kts 186°
2026-04-16 02:44 -36.95173 174.97974 1511 ft 89 kts 184°
2026-04-16 02:45 -36.95784 174.98195 1531 ft 90 kts 174°
2026-04-16 02:45 -36.96399 174.98483 1614 ft 94 kts 170°
2026-04-16 02:45 -36.97008 174.98791 1634 ft 92 kts 173°
2026-04-16 02:45 -36.97619 174.99054 1650 ft 93 kts 174°
2026-04-16 02:46 -36.98251 174.99280 1614 ft 96 kts 178°
2026-04-16 02:46 -36.98917 174.99457 1525 ft 97 kts 184°
2026-04-16 02:46 -36.99557 174.99406 1493 ft 89 kts 204°
2026-04-16 02:46 -37.00118 174.99138 1460 ft 81 kts 210°
2026-04-16 02:47 -37.00597 174.98781 1349 ft 77 kts 220°
2026-04-16 02:47 -37.01012 174.98346 1186 ft 77 kts 225°
2026-04-16 02:47 -37.01399 174.97844 1170 ft 82 kts 228°
2026-04-16 02:47 -37.01783 174.97299 1210 ft 86 kts 232°
2026-04-16 02:48 -37.02134 174.96680 1217 ft 89 kts 227°
2026-04-16 02:48 -37.02701 174.96291 1179 ft 95 kts 193°
2026-04-16 02:48 -37.03307 174.96634 1209 ft 101 kts 152°
2026-04-16 02:48 -37.03816 174.97282 1154 ft 108 kts 145°
2026-04-16 02:49 -37.04319 174.97940 1161 ft 108 kts 131°
2026-04-16 02:49 -37.04150 174.98888 1044 ft 128 kts 57°
2026-04-16 02:49 -37.03656 174.99768 1134 ft 117 kts 49°
2026-04-16 02:49 -37.03132 175.00537 1150 ft 113 kts 49°
2026-04-16 02:50 -37.02547 175.00972 1115 ft 91 kts 346°
2026-04-16 02:50 -37.02010 175.00748 1065 ft 73 kts 320°
2026-04-16 02:50 -37.01544 175.00475 1040 ft 75 kts 317°
2026-04-16 02:50 -37.01209 175.00127 907 ft 52 kts 268°
2026-04-16 02:51 -37.01356 174.99754 725 ft 46 kts 237°
2026-04-16 02:51 -37.01546 174.99442 650 ft 47 kts 229°
2026-04-16 02:51 -37.01771 174.99135 583 ft 48 kts 228°
2026-04-16 02:51 -37.02005 174.98836 476 ft 49 kts 227°
2026-04-16 02:52 -37.02242 174.98524 367 ft 49 kts 226°
2026-04-16 02:52 -37.02480 174.98218 244 ft 50 kts 226°
2026-04-16 02:52 -37.02721 174.97910 126 ft 47 kts 227°
2026-04-16 02:52 -37.02903 174.97678 110 ft 42 kts 226°
2026-04-16 02:53 -37.03169 174.97354 232 ft 58 kts 226°
2026-04-16 02:53 -37.03457 174.96997 407 ft 61 kts 224°
2026-04-16 02:53 -37.03778 174.96619 573 ft 66 kts 226°
2026-04-16 02:53 -37.04144 174.96274 757 ft 71 kts 194°
2026-04-16 02:54 -37.04618 174.96547 970 ft 79 kts 155°
2026-04-16 02:54 -37.04972 174.97141 1086 ft 104 kts 100°
2026-04-16 02:54 -37.04633 174.98045 1086 ft 120 kts 53°
2026-04-16 02:54 -37.04115 174.98856 1184 ft 117 kts 48°
2026-04-16 02:55 -37.03572 174.99626 1216 ft 119 kts 49°
2026-04-16 02:55 -37.03034 175.00296 1225 ft 91 kts
2026-04-16 02:55 -37.02495 175.00157 1070 ft 71 kts 318°
2026-04-16 02:55 -37.02078 174.99826 984 ft 71 kts 308°
2026-04-16 02:56 -37.01736 174.99458 846 ft 58 kts 287°
2026-04-16 02:56 -37.01780 174.99043 623 ft 49 kts 233°
2026-04-16 02:56 -37.01997 174.98703 506 ft 51 kts 230°
2026-04-16 02:56 -37.02228 174.98399 400 ft 46 kts 224°
2026-04-16 02:57 -37.02452 174.98116 288 ft 46 kts 227°
2026-04-16 02:57 -37.02678 174.97830 186 ft 46 kts 227°
2026-04-16 02:57 -37.02894 174.97545 113 ft 40 kts 227°
2026-04-16 02:57 -37.03037 174.97362 110 ft 21 kts 224°
2026-04-16 02:58 -37.03115 174.97261 110 ft 12 kts 227°
2026-04-16 02:58 -37.03164 174.97195 110 ft 7 kts 226°
2026-04-16 02:58 -37.03202 174.97162 110 ft 6 kts 167°
2026-04-16 02:58 -37.03229 174.97180 110 ft 2 kts 145°
2026-04-16 02:59 -37.03261 174.97211 110 ft 10 kts 141°
2026-04-16 02:59 -37.03305 174.97255 110 ft 6 kts 108°
2026-04-16 02:59 -37.03279 174.97302 110 ft 5 kts 47°
2026-04-16 02:59 -37.03252 174.97336 110 ft 10 kts 44°
2026-04-16 03:00 -37.03234 174.97382 110 ft 4 kts 147°
2026-04-16 03:00 -37.03264 174.97411 110 ft 6 kts 143°
2026-04-16 03:00 -37.03294 174.97430 110 ft 5 kts 145°
2026-04-16 03:00 -37.03321 174.97466 110 ft 4 kts 143°
2026-04-16 03:01 -37.03339 174.97464 110 ft 1 kts 228°